SWQ06 AGGH-ANYN

Flight info

Callsign SWQ06
Flight time 1h 46m
Altitude 35000
Route APITA1Q BIKSU A598 NI
Aircraft B738/M-SDE2E3FGHIRWXY/LB1

Departure

Time 2026-04-22 19:58
Airport Honiara International Airport (AGGH)

Arrival

Time 2026-04-22 21:44
Airport Nauru International Airport (ANYN)
Time Latitude Longitude Altitude Speed Heading
2026-04-22 19:44 -9.42918 160.04835 33 ft 0 kts 314°
2026-04-22 19:50 -9.42919 160.04836 33 ft 1 kts 314°
2026-04-22 19:50 -9.42922 160.04838 33 ft 1 kts 314°
2026-04-22 19:50 -9.42925 160.04842 33 ft 1 kts 304°
2026-04-22 19:51 -9.42929 160.04848 31 ft 1 kts 284°
2026-04-22 19:51 -9.42930 160.04855 30 ft 1 kts 264°
2026-04-22 19:51 -9.42929 160.04862 30 ft 1 kts 244°
2026-04-22 19:51 -9.42925 160.04868 33 ft 1 kts 224°
2026-04-22 19:52 -9.42920 160.04873 33 ft 1 kts 192°
2026-04-22 19:52 -9.42919 160.04873 33 ft 0 kts 184°
2026-04-22 19:53 -9.42947 160.04872 33 ft 12 kts 183°
2026-04-22 19:54 -9.43022 160.04941 32 ft 21 kts 79°
2026-04-22 19:54 -9.42960 160.05096 31 ft 27 kts 67°
2026-04-22 19:54 -9.42880 160.05289 32 ft 32 kts 68°
2026-04-22 19:54 -9.42788 160.05517 29 ft 38 kts 68°
2026-04-22 19:55 -9.42685 160.05778 25 ft 42 kts 68°
2026-04-22 19:55 -9.42574 160.06066 27 ft 45 kts 69°
2026-04-22 19:55 -9.42465 160.06298 25 ft 24 kts 45°
2026-04-22 19:55 -9.42448 160.06336 26 ft 3 kts 165°
2026-04-22 19:56 -9.42468 160.06330 27 ft 4 kts 221°
2026-04-22 19:56 -9.42483 160.06288 25 ft 10 kts 248°
2026-04-22 19:56 -9.42484 160.06284 25 ft 0 kts 246°
2026-04-22 19:57 -9.42490 160.06271 27 ft 16 kts 244°
2026-04-22 19:57 -9.42630 160.05924 24 ft 89 kts 248°
2026-04-22 19:57 -9.42950 160.05146 33 ft 144 kts 245°
2026-04-22 19:57 -9.43333 160.04170 236 ft 155 kts 247°
2026-04-22 19:58 -9.43753 160.03124 700 ft 170 kts 247°
2026-04-22 19:58 -9.44059 160.02362 1000 ft 181 kts 247°
2026-04-22 19:58 -9.44547 160.01147 1635 ft 189 kts 247°
2026-04-22 19:58 -9.45052 159.99840 1909 ft 212 kts 254°
2026-04-22 19:59 -9.45001 159.98316 2041 ft 230 kts 295°
2026-04-22 20:00 -9.36417 160.00971 4874 ft 270 kts 44°
2026-04-22 20:00 -9.35054 160.02291 5489 ft 272 kts 44°
2026-04-22 20:01 -9.33674 160.03612 6139 ft 274 kts 43°
2026-04-22 20:01 -9.32276 160.04936 6773 ft 277 kts 43°
2026-04-22 20:01 -9.30856 160.06270 7390 ft 279 kts 43°
2026-04-22 20:01 -9.29422 160.07610 8039 ft 281 kts 42°
2026-04-22 20:02 -9.27973 160.08959 8692 ft 284 kts 42°
2026-04-22 20:02 -9.26531 160.10297 9352 ft 286 kts 42°
2026-04-22 20:02 -9.25053 160.11665 9998 ft 289 kts 42°
2026-04-22 20:02 -9.23543 160.13059 10378 ft 303 kts 42°
2026-04-22 20:03 -9.21929 160.14549 10520 ft 324 kts 42°
2026-04-22 20:03 -9.20214 160.16130 10696 ft 341 kts 41°
2026-04-22 20:03 -9.18433 160.17772 11122 ft 348 kts 41°
2026-04-22 20:03 -9.16636 160.19428 11710 ft 351 kts 41°
2026-04-22 20:04 -9.14825 160.21098 12314 ft 353 kts 41°
2026-04-22 20:04 -9.13005 160.22774 12911 ft 355 kts 41°
2026-04-22 20:04 -9.11167 160.24467 13509 ft 359 kts 41°
2026-04-22 20:04 -9.09315 160.26171 14039 ft 362 kts 41°
2026-04-22 20:05 -9.07438 160.27899 14539 ft 366 kts 41°
2026-04-22 20:05 -9.05544 160.29643 15054 ft 370 kts 41°
2026-04-22 20:05 -9.03634 160.31400 15551 ft 374 kts 41°
2026-04-22 20:05 -9.01702 160.33178 16057 ft 377 kts 41°
2026-04-22 20:06 -8.99751 160.34973 16555 ft 381 kts 41°
2026-04-22 20:06 -8.97780 160.36785 17048 ft 385 kts 41°
2026-04-22 20:06 -8.95815 160.38593 17522 ft 388 kts 41°
2026-04-22 20:06 -8.93808 160.40438 17995 ft 392 kts 41°
2026-04-22 20:07 -8.91780 160.42302 18417 ft 396 kts 41°
2026-04-22 20:07 -8.89737 160.44181 18837 ft 398 kts 41°
2026-04-22 20:07 -8.87683 160.46069 19255 ft 401 kts 41°
2026-04-22 20:07 -8.85610 160.47974 19662 ft 404 kts 41°
2026-04-22 20:08 -8.83525 160.49890 20055 ft 406 kts 41°
2026-04-22 20:08 -8.81422 160.51823 20447 ft 409 kts 41°
2026-04-22 20:08 -8.79302 160.53770 20839 ft 412 kts 41°
2026-04-22 20:08 -8.77176 160.55723 21207 ft 415 kts 41°
2026-04-22 20:09 -8.75030 160.57693 21587 ft 418 kts 41°
2026-04-22 20:09 -8.72869 160.59678 21954 ft 421 kts 41°
2026-04-22 20:09 -8.70700 160.61670 22322 ft 423 kts 41°
2026-04-22 20:09 -8.68509 160.63682 22677 ft 426 kts 41°
2026-04-22 20:10 -8.66338 160.65674 23019 ft 429 kts 41°
2026-04-22 20:10 -8.64110 160.67687 23354 ft 431 kts 39°
2026-04-22 20:10 -8.61783 160.69622 23656 ft 433 kts 37°
2026-04-22 20:10 -8.59407 160.71510 23944 ft 435 kts 37°
2026-04-22 20:11 -8.57010 160.73388 24257 ft 436 kts 37°
2026-04-22 20:11 -8.54612 160.75272 24563 ft 438 kts 37°
2026-04-22 20:11 -8.52207 160.77174 24848 ft 440 kts 37°
2026-04-22 20:11 -8.49797 160.79091 25126 ft 442 kts 37°
2026-04-22 20:12 -8.47379 160.81022 25394 ft 444 kts 37°
2026-04-22 20:12 -8.44954 160.82965 25661 ft 446 kts 37°
2026-04-22 20:12 -8.42525 160.84914 25937 ft 447 kts 37°
2026-04-22 20:12 -8.40081 160.86874 26198 ft 449 kts 37°
2026-04-22 20:13 -8.37629 160.88839 26452 ft 451 kts 37°
2026-04-22 20:13 -8.35159 160.90818 26695 ft 453 kts 37°
2026-04-22 20:13 -8.32680 160.92805 26946 ft 455 kts 37°
2026-04-22 20:13 -8.30194 160.94796 27199 ft 457 kts 37°
2026-04-22 20:14 -8.27695 160.96796 27451 ft 459 kts 37°
2026-04-22 20:14 -8.25191 160.98801 27693 ft 460 kts 37°
2026-04-22 20:14 -8.22708 161.00789 27990 ft 460 kts 37°
2026-04-22 20:14 -8.20197 161.02799 28273 ft 461 kts 37°
2026-04-22 20:15 -8.17684 161.04811 28485 ft 463 kts 37°
2026-04-22 20:15 -8.15153 161.06836 28682 ft 465 kts 37°
2026-04-22 20:15 -8.12606 161.08872 28898 ft 467 kts 37°
2026-04-22 20:15 -8.10055 161.10913 29125 ft 469 kts 37°
2026-04-22 20:16 -8.07496 161.12961 29345 ft 470 kts 37°
2026-04-22 20:16 -8.04928 161.15017 29555 ft 472 kts 37°
2026-04-22 20:16 -8.02352 161.17079 29798 ft 472 kts 37°
2026-04-22 20:16 -7.99782 161.19137 30100 ft 471 kts 37°
2026-04-22 20:17 -7.97227 161.21183 30421 ft 469 kts 37°
2026-04-22 20:17 -7.94673 161.23227 30752 ft 466 kts 37°
2026-04-22 20:17 -7.92136 161.25258 31089 ft 464 kts 37°
2026-04-22 20:17 -7.89611 161.27278 31390 ft 463 kts 38°
2026-04-22 20:18 -7.87094 161.29292 31712 ft 461 kts 38°
2026-04-22 20:18 -7.84587 161.31297 32032 ft 459 kts 38°
2026-04-22 20:18 -7.82122 161.33268 32349 ft 457 kts 38°
2026-04-22 20:18 -7.79634 161.35257 32658 ft 456 kts 38°
2026-04-22 20:19 -7.77147 161.37246 32975 ft 455 kts 38°
2026-04-22 20:19 -7.74672 161.39224 33293 ft 453 kts 38°
2026-04-22 20:19 -7.72202 161.41198 33619 ft 452 kts 38°
2026-04-22 20:19 -7.69742 161.43163 33936 ft 450 kts 38°
2026-04-22 20:20 -7.67291 161.45121 34194 ft 449 kts 38°
2026-04-22 20:20 -7.64845 161.47075 34424 ft 449 kts 38°
2026-04-22 20:20 -7.62399 161.49029 34651 ft 448 kts 38°
2026-04-22 20:20 -7.59961 161.50976 34884 ft 448 kts 38°
2026-04-22 20:21 -7.57506 161.52936 34881 ft 451 kts 38°
2026-04-22 20:21 -7.52596 161.56856 34895 ft 448 kts 38°
2026-04-22 20:22 -7.47758 161.60717 34895 ft 445 kts 38°
2026-04-22 20:22 -7.42919 161.64577 34899 ft 443 kts 38°
2026-04-22 20:23 -7.38065 161.68449 34902 ft 442 kts 38°
2026-04-22 20:23 -7.33275 161.72269 34903 ft 442 kts 38°
2026-04-22 20:24 -7.28450 161.76115 34904 ft 443 kts 38°
2026-04-22 20:24 -7.23606 161.79975 34905 ft 444 kts 38°
2026-04-22 20:25 -7.18747 161.83846 34907 ft 446 kts 38°
2026-04-22 20:25 -7.13873 161.87728 34902 ft 447 kts 38°
2026-04-22 20:26 -7.08988 161.91618 34904 ft 448 kts 38°
2026-04-22 20:26 -7.04128 161.95487 34900 ft 448 kts 38°
2026-04-22 20:27 -6.99235 161.99381 34901 ft 448 kts 38°
2026-04-22 20:27 -6.94343 162.03273 34900 ft 448 kts 38°
2026-04-22 20:28 -6.89455 162.07161 34898 ft 447 kts 38°
2026-04-22 20:28 -6.84577 162.11041 34901 ft 446 kts 38°
2026-04-22 20:29 -6.79710 162.14910 34903 ft 445 kts 38°
2026-04-22 20:29 -6.74878 162.18752 34904 ft 445 kts 38°
2026-04-22 20:30 -6.70024 162.22613 34901 ft 444 kts 38°
2026-04-22 20:30 -6.65192 162.26479 34907 ft 444 kts 38°
2026-04-22 20:31 -6.60366 162.30348 34901 ft 443 kts 38°
2026-04-22 20:31 -6.55542 162.34213 34901 ft 443 kts 38°
2026-04-22 20:32 -6.50721 162.38073 34904 ft 443 kts 38°
2026-04-22 20:32 -6.45929 162.41909 34904 ft 442 kts 38°
2026-04-22 20:33 -6.41107 162.45767 34905 ft 443 kts 38°
2026-04-22 20:33 -6.36285 162.49624 34904 ft 443 kts 38°
2026-04-22 20:34 -6.31457 162.53485 34904 ft 443 kts 38°
2026-04-22 20:34 -6.26663 162.57318 34905 ft 443 kts 38°
2026-04-22 20:35 -6.21834 162.61177 34904 ft 444 kts 38°
2026-04-22 20:35 -6.17000 162.65040 34904 ft 444 kts 38°
2026-04-22 20:36 -6.12165 162.68903 34902 ft 444 kts 38°
2026-04-22 20:36 -6.07328 162.72767 34905 ft 444 kts 38°
2026-04-22 20:37 -6.02488 162.76632 34906 ft 444 kts 38°
2026-04-22 20:37 -5.97650 162.80494 34903 ft 444 kts 38°
2026-04-22 20:38 -5.92809 162.84359 34907 ft 444 kts 38°
2026-04-22 20:38 -5.87972 162.88219 34906 ft 444 kts 38°
2026-04-22 20:39 -5.83140 162.92074 34902 ft 443 kts 38°
2026-04-22 20:39 -5.78342 162.95901 34908 ft 443 kts 39°
2026-04-22 20:40 -5.73510 162.99753 34906 ft 443 kts 39°
2026-04-22 20:40 -5.68680 163.03605 34907 ft 442 kts 39°
2026-04-22 20:41 -5.63859 163.07448 34907 ft 442 kts 39°
2026-04-22 20:41 -5.59036 163.11291 34909 ft 442 kts 39°
2026-04-22 20:42 -5.54264 163.15093 34912 ft 442 kts 39°
2026-04-22 20:42 -5.49436 163.18939 34910 ft 442 kts 39°
2026-04-22 20:43 -5.44620 163.22775 34911 ft 442 kts 39°
2026-04-22 20:43 -5.39806 163.26608 34911 ft 441 kts 39°
2026-04-22 20:44 -5.34992 163.30440 34908 ft 441 kts 39°
2026-04-22 20:44 -5.30216 163.34242 34909 ft 441 kts 39°
2026-04-22 20:45 -5.25408 163.38068 34915 ft 441 kts 39°
2026-04-22 20:45 -5.20599 163.41894 34911 ft 441 kts 39°
2026-04-22 20:46 -5.13390 163.47628 34912 ft 441 kts 39°
2026-04-22 20:46 -5.08589 163.51446 34914 ft 440 kts 39°
2026-04-22 20:47 -5.04597 163.54619 34914 ft 440 kts 39°
2026-04-22 20:47 -4.99798 163.58434 34915 ft 440 kts 39°
2026-04-22 20:48 -4.94999 163.62248 34915 ft 440 kts 39°
2026-04-22 20:48 -4.90204 163.66058 34916 ft 440 kts 39°
2026-04-22 20:49 -4.85411 163.69866 34912 ft 440 kts 39°
2026-04-22 20:49 -4.80613 163.73677 34913 ft 440 kts 39°
2026-04-22 20:50 -4.75822 163.77483 34915 ft 439 kts 39°
2026-04-22 20:50 -4.71029 163.81288 34918 ft 439 kts 39°
2026-04-22 20:51 -4.66237 163.85092 34918 ft 439 kts 39°
2026-04-22 20:51 -4.61472 163.88874 34918 ft 439 kts 39°
2026-04-22 20:52 -4.56682 163.92676 34916 ft 439 kts 39°
2026-04-22 20:52 -4.51883 163.96483 34918 ft 439 kts 39°
2026-04-22 20:53 -4.47085 164.00290 34919 ft 439 kts 39°
2026-04-22 20:53 -4.42324 164.04066 34918 ft 439 kts 39°
2026-04-22 20:54 -4.37533 164.07866 34917 ft 439 kts 39°
2026-04-22 20:54 -4.32734 164.11671 34919 ft 439 kts 39°
2026-04-22 20:55 -4.27938 164.15473 34920 ft 440 kts 39°
2026-04-22 20:55 -4.23138 164.19278 34921 ft 440 kts 39°
2026-04-22 20:56 -4.18337 164.23083 34921 ft 440 kts 39°
2026-04-22 20:56 -4.13533 164.26890 34921 ft 440 kts 39°
2026-04-22 20:57 -4.08732 164.30693 34918 ft 440 kts 39°
2026-04-22 20:57 -4.03921 164.34504 34918 ft 440 kts 39°
2026-04-22 20:58 -3.99145 164.38287 34920 ft 440 kts 39°
2026-04-22 20:58 -3.94334 164.42097 34921 ft 441 kts 39°
2026-04-22 20:59 -3.89525 164.45905 34920 ft 441 kts 39°
2026-04-22 20:59 -3.84712 164.49715 34921 ft 441 kts 39°
2026-04-22 21:00 -3.79892 164.53508 34923 ft 440 kts 39°
2026-04-22 21:00 -3.75072 164.57319 34923 ft 440 kts 39°
2026-04-22 21:01 -3.70297 164.61101 34920 ft 440 kts 39°
2026-04-22 21:01 -3.65488 164.64908 34922 ft 440 kts 39°
2026-04-22 21:02 -3.60684 164.68709 34926 ft 440 kts 39°
2026-04-22 21:02 -3.55875 164.72514 34924 ft 440 kts 39°
2026-04-22 21:03 -3.51066 164.76319 34925 ft 440 kts 39°
2026-04-22 21:03 -3.46298 164.80092 34914 ft 438 kts 39°
2026-04-22 21:04 -3.41527 164.83865 34931 ft 439 kts 39°
2026-04-22 21:04 -3.36702 164.87681 34931 ft 443 kts 39°
2026-04-22 21:05 -3.31849 164.91517 34925 ft 446 kts 39°
2026-04-22 21:05 -3.26974 164.95370 34923 ft 447 kts 39°
2026-04-22 21:06 -3.22097 164.99225 34924 ft 446 kts 39°
2026-04-22 21:06 -3.17230 165.03072 34924 ft 445 kts 39°
2026-04-22 21:07 -3.12370 165.06914 34925 ft 444 kts 39°
2026-04-22 21:07 -3.07530 165.10740 34923 ft 442 kts 39°
2026-04-22 21:08 -3.02707 165.14554 34927 ft 441 kts 39°
2026-04-22 21:08 -2.97909 165.18298 34928 ft 440 kts 38°
2026-04-22 21:09 -2.92933 165.21852 34930 ft 439 kts 37°
2026-04-22 21:09 -2.87938 165.25369 34927 ft 438 kts 37°
2026-04-22 21:10 -2.82961 165.28894 34929 ft 438 kts 37°
2026-04-22 21:10 -2.77997 165.32435 34930 ft 438 kts 37°
2026-04-22 21:11 -2.73033 165.35984 34929 ft 438 kts 37°
2026-04-22 21:11 -2.68065 165.39538 34929 ft 439 kts 37°
2026-04-22 21:12 -2.63095 165.43093 34929 ft 439 kts 37°
2026-04-22 21:12 -2.58147 165.46631 34928 ft 440 kts 37°
2026-04-22 21:13 -2.53170 165.50190 34935 ft 440 kts 37°
2026-04-22 21:13 -2.48183 165.53755 34934 ft 440 kts 37°
2026-04-22 21:14 -2.43191 165.57324 34934 ft 441 kts 37°
2026-04-22 21:14 -2.38208 165.60885 34934 ft 440 kts 37°
2026-04-22 21:15 -2.33220 165.64450 34935 ft 440 kts 37°
2026-04-22 21:15 -2.28239 165.68009 34937 ft 440 kts 37°
2026-04-22 21:16 -2.23256 165.71570 34937 ft 440 kts 37°
2026-04-22 21:16 -2.18280 165.75126 34937 ft 439 kts 37°
2026-04-22 21:17 -2.13335 165.78658 34932 ft 439 kts 37°
2026-04-22 21:17 -2.08367 165.82208 34936 ft 437 kts 37°
2026-04-22 21:18 -2.05895 165.83973 34622 ft 436 kts 37°
2026-04-22 21:18 -2.03448 165.85721 34303 ft 429 kts 37°
2026-04-22 21:18 -2.01029 165.87449 33894 ft 425 kts 37°
2026-04-22 21:18 -1.98630 165.89162 33451 ft 422 kts 37°
2026-04-22 21:19 -1.96252 165.90860 33022 ft 419 kts 37°
2026-04-22 21:19 -1.93889 165.92548 32604 ft 416 kts 37°
2026-04-22 21:19 -1.91543 165.94224 32193 ft 413 kts 37°
2026-04-22 21:19 -1.89215 165.95886 31787 ft 410 kts 37°
2026-04-22 21:20 -1.86898 165.97541 31383 ft 408 kts 37°
2026-04-22 21:20 -1.84599 165.99183 30984 ft 405 kts 37°
2026-04-22 21:20 -1.82310 166.00817 30568 ft 404 kts 37°
2026-04-22 21:20 -1.80027 166.02448 30170 ft 402 kts 37°
2026-04-22 21:21 -1.77750 166.04074 29732 ft 401 kts 37°
2026-04-22 21:21 -1.75492 166.05686 29293 ft 398 kts 37°
2026-04-22 21:21 -1.73246 166.07289 28867 ft 395 kts 37°
2026-04-22 21:21 -1.71018 166.08880 28454 ft 392 kts 37°
2026-04-22 21:22 -1.68836 166.10438 28049 ft 389 kts 37°
2026-04-22 21:22 -1.66638 166.12007 27647 ft 386 kts 37°
2026-04-22 21:22 -1.64464 166.13559 27250 ft 383 kts 37°
2026-04-22 21:22 -1.62300 166.15105 26857 ft 381 kts 37°
2026-04-22 21:23 -1.60147 166.16641 26464 ft 379 kts 37°
2026-04-22 21:23 -1.58004 166.18171 26074 ft 377 kts 37°
2026-04-22 21:23 -1.55874 166.19692 25675 ft 375 kts 37°
2026-04-22 21:23 -1.53751 166.21208 25288 ft 374 kts 37°
2026-04-22 21:24 -1.51662 166.22699 24880 ft 373 kts 37°
2026-04-22 21:24 -1.49556 166.24203 24500 ft 372 kts 37°
2026-04-22 21:24 -1.47450 166.25706 24103 ft 371 kts 37°
2026-04-22 21:24 -1.45353 166.27203 23708 ft 370 kts 37°
2026-04-22 21:25 -1.43258 166.28698 23276 ft 370 kts 37°
2026-04-22 21:25 -1.41170 166.30188 22858 ft 367 kts 37°
2026-04-22 21:25 -1.39098 166.31667 22470 ft 365 kts 37°
2026-04-22 21:25 -1.37039 166.33137 22076 ft 362 kts 37°
2026-04-22 21:26 -1.34991 166.34598 21693 ft 360 kts 37°
2026-04-22 21:26 -1.32954 166.36052 21319 ft 358 kts 37°
2026-04-22 21:26 -1.30937 166.37491 20943 ft 355 kts 37°
2026-04-22 21:26 -1.28932 166.38922 20574 ft 353 kts 37°
2026-04-22 21:27 -1.26936 166.40347 20204 ft 351 kts 37°
2026-04-22 21:27 -1.24954 166.41761 19841 ft 349 kts 37°
2026-04-22 21:27 -1.23007 166.43151 19469 ft 348 kts 37°
2026-04-22 21:27 -1.21015 166.44572 19101 ft 347 kts 37°
2026-04-22 21:28 -1.19080 166.45953 18743 ft 346 kts 37°
2026-04-22 21:28 -1.17103 166.47364 18339 ft 345 kts 37°
2026-04-22 21:28 -1.15175 166.48740 17965 ft 343 kts 37°
2026-04-22 21:28 -1.13238 166.50122 17572 ft 341 kts 37°
2026-04-22 21:29 -1.11313 166.51495 17195 ft 339 kts 37°
2026-04-22 21:29 -1.09403 166.52858 16832 ft 336 kts 37°
2026-04-22 21:29 -1.07505 166.54212 16476 ft 334 kts 37°
2026-04-22 21:29 -1.05621 166.55557 16120 ft 332 kts 37°
2026-04-22 21:30 -1.03752 166.56891 15765 ft 329 kts 37°
2026-04-22 21:30 -1.01892 166.58218 15418 ft 327 kts 37°
2026-04-22 21:30 -1.00043 166.59537 15075 ft 326 kts 37°
2026-04-22 21:30 -0.98205 166.60848 14731 ft 324 kts 37°
2026-04-22 21:31 -0.96377 166.62153 14379 ft 323 kts 36°
2026-04-22 21:31 -0.94552 166.63454 14034 ft 322 kts 36°
2026-04-22 21:31 -0.92733 166.64752 13674 ft 321 kts 36°
2026-04-22 21:31 -0.90919 166.66047 13282 ft 320 kts 36°
2026-04-22 21:32 -0.89117 166.67332 12927 ft 317 kts 36°
2026-04-22 21:32 -0.87345 166.68596 12564 ft 308 kts 36°
2026-04-22 21:32 -0.85631 166.69818 12244 ft 298 kts 36°
2026-04-22 21:32 -0.83977 166.70998 11974 ft 287 kts 36°
2026-04-22 21:33 -0.82372 166.72143 11669 ft 279 kts 36°
2026-04-22 21:33 -0.80802 166.73263 11384 ft 276 kts 36°
2026-04-22 21:33 -0.79240 166.74377 11091 ft 276 kts 36°
2026-04-22 21:33 -0.77657 166.75507 10812 ft 286 kts 36°
2026-04-22 21:34 -0.76013 166.76681 10486 ft 293 kts 36°
2026-04-22 21:34 -0.74919 166.77461 10323 ft 288 kts 36°
2026-04-22 21:34 -0.72833 166.78949 10138 ft 270 kts 36°
2026-04-22 21:34 -0.71328 166.80022 9726 ft 267 kts 36°
2026-04-22 21:35 -0.69796 166.81115 9080 ft 272 kts 36°
2026-04-22 21:35 -0.68256 166.82215 8585 ft 272 kts 36°
2026-04-22 21:35 -0.66725 166.83307 8129 ft 269 kts 36°
2026-04-22 21:35 -0.65712 166.84030 7823 ft 269 kts 36°
2026-04-22 21:36 -0.64227 166.85148 7359 ft 267 kts 45°
2026-04-22 21:36 -0.63345 166.86753 6869 ft 269 kts 79°
2026-04-22 21:36 -0.63340 166.88621 6476 ft 270 kts 95°
2026-04-22 21:36 -0.63623 166.90473 6005 ft 270 kts 97°
2026-04-22 21:37 -0.64087 166.92950 5385 ft 270 kts 98°
2026-04-22 21:37 -0.64324 166.94164 5106 ft 268 kts 99°
2026-04-22 21:37 -0.64993 166.95898 4634 ft 271 kts 122°
2026-04-22 21:37 -0.66148 166.97388 4205 ft 269 kts 128°
2026-04-22 21:38 -0.67358 166.98825 3713 ft 270 kts 128°
2026-04-22 21:38 -0.68572 167.00257 3284 ft 269 kts 129°
2026-04-22 21:38 -0.69683 167.01755 2955 ft 267 kts 113°
2026-04-22 21:38 -0.70056 167.03500 2771 ft 256 kts 83°
2026-04-22 21:39 -0.69539 167.05130 2687 ft 242 kts 54°
2026-04-22 21:39 -0.68322 167.06205 2565 ft 231 kts 22°
2026-04-22 21:39 -0.66803 167.06432 2518 ft 218 kts 349°
2026-04-22 21:39 -0.65500 167.05793 2507 ft 207 kts 316°
2026-04-22 21:40 -0.64591 167.04728 2501 ft 197 kts 309°
2026-04-22 21:40 -0.63742 167.03640 2464 ft 197 kts 309°
2026-04-22 21:40 -0.63012 167.02487 2356 ft 198 kts 289°
2026-04-22 21:40 -0.62637 167.01221 2263 ft 185 kts 301°
2026-04-22 21:41 -0.61818 167.00294 2075 ft 177 kts 315°
2026-04-22 21:41 -0.61026 166.99340 1836 ft 176 kts 310°
2026-04-22 21:41 -0.60261 166.98405 1590 ft 170 kts 311°
2026-04-22 21:41 -0.59532 166.97537 1368 ft 160 kts 311°
2026-04-22 21:42 -0.58820 166.96697 1194 ft 157 kts 312°
2026-04-22 21:42 -0.58134 166.95891 998 ft 145 kts 312°
2026-04-22 21:42 -0.57518 166.95166 775 ft 130 kts 312°
2026-04-22 21:42 -0.56939 166.94462 514 ft 129 kts 313°
2026-04-22 21:43 -0.56358 166.93793 364 ft 128 kts 312°
2026-04-22 21:43 -0.55774 166.93107 212 ft 130 kts 311°
2026-04-22 21:43 -0.55196 166.92415 26 ft 124 kts 311°
2026-04-22 21:43 -0.54749 166.91902 27 ft 67 kts 311°
2026-04-22 21:44 -0.54563 166.91683 27 ft 25 kts 307°
2026-04-22 21:44 -0.54474 166.91604 23 ft 12 kts 354°
2026-04-22 21:44 -0.54422 166.91646 23 ft 7 kts 64°
2026-04-22 21:44 -0.54414 166.91667 28 ft 0 kts 73°